SL-8 R/B

Satellite information

Favourite Embed

Satellite Type and Status

ROCKET BODYIN ORBIT

Key statistics

Satellite SL-8 R/B at a glance.

Uptime

17416

Days in orbit

Revolutions

≈ 14.4

Per day

Orbit

LEO

Low Earth Orbit

Inclination

74.0

Latest

Satellite identification and parameters

Extended collection of information and parameters for SL-8 R/B.

Object identification

Identified? True

Debris? False

Object name: SL-8 R/B

International designator: 1978-019B

Object number (NORAD): 10677

Object ID (CCSDS): 10677

Country: COMMONWEALTH OF INDEPENDENT STATES (CIS)

Current information (Y/N): Y

RCS size: LARGE

Orbital parameters

Period: 99.89 minutes

Inclination: 74.0384 deg

SMA: 7131.39 km

Apoapsis: 763.062 km

Periapsis: 743.449 km

RAAN: 61.8678 deg

Eccentricy: 0.0013751

Argument of periapsis: 106.3774 deg

Mean anomaly: 253.8895 deg

Mean motion: 14.41588933 rev/day

Mean motion (dot): 0.00000557 rev/day2

B* drag term: 0.00017911 1/REarth

Two-line elements (TLE)

Creation date: Oct. 23, 2025, 10:16 p.m.

Reference frame: TEME

Reference center: EARTH

Epoch: Oct. 23, 2025, 3:31 p.m. UTC

TLE line 0: 0 SL-8 R/B

TLE line 1: 1 10677U 78019B 25296.64694933 .00000557 00000-0 17911-3 0 9993

TLE line 2: 2 10677 74.0384 61.8678 0013751 106.3774 253.8895 14.41588933501406

Live tracking on map

Real-time ground track for satellite SL-8 R/B.

In-orbit conjunctions

A list of the most updated potential collisions computed for object SL-8 R/B.

Target Orbit TCA Probability of collision Miss distance Type
FENGYUN 1C DEB SSO 2025-10-24 01:58:26 0.0002039435 570.0 (m) DEBRIS
FENGYUN 1C DEB SSO 2025-06-12 17:29:03 0.0006765673 75.0 (m) DEBRIS
DELTA 1 R/B(1) LEO 2024-06-29 15:39:26 0.0001462558 455.0 (m) ROCKET BODY

Associated space launch

Military communications satellite

SL-8 R/B was lifted into orbit during the mission ‘Kosmos-3M | Strela-2M 17’, on board a Kosmos-3M space rocket.

The launch took place on Feb. 17, 1978, 4:33 p.m. from 132/2.

For more information about the launch, click the button.

Launch to space Kosmos-3M | Strela-2M 17
Kosmos-3M | Strela-2M 17

Agency: N/A

Status: Launch Successful

Launch date: Feb. 17, 1978, 4:33 p.m. UTC

Rocket: Kosmos-3M

Launch pad: 132/2

Location: Plesetsk Cosmodrome, Russian Federation

...

Latest news about this satellite

There are no fresh news available about this satellite. Check back as we update our databases every day.


Newsletter sign-up

Weekly statistics, charts and insights to help you stay on top of the space industry.